Index of /20260504/WXO-DD/model_gdps/15km/12/135
Name Last modified Size Description
Parent Directory -
20260504T12Z_MSC_GDPS_AbsoluteVorticity_IsbL-0200_LatLon0.15_PT135H.grib2 2026-05-04 16:44 1.5M
20260504T12Z_MSC_GDPS_AbsoluteVorticity_IsbL-0250_LatLon0.15_PT135H.grib2 2026-05-04 16:44 1.3M
20260504T12Z_MSC_GDPS_AbsoluteVorticity_IsbL-0500_LatLon0.15_PT135H.grib2 2026-05-04 16:44 1.5M
20260504T12Z_MSC_GDPS_AbsoluteVorticity_IsbL-0700_LatLon0.15_PT135H.grib2 2026-05-04 16:44 1.3M
20260504T12Z_MSC_GDPS_AbsoluteVorticity_IsbL-0850_LatLon0.15_PT135H.grib2 2026-05-04 16:44 1.6M
20260504T12Z_MSC_GDPS_AirTemp_AGL-120m_LatLon0.15_PT135H.grib2 2026-05-04 16:44 905K
20260504T12Z_MSC_GDPS_AirTemp_AGL-2m_LatLon0.15_PT135H.grib2 2026-05-04 16:44 1.0M
20260504T12Z_MSC_GDPS_AirTemp_AGL-40m_LatLon0.15_PT135H.grib2 2026-05-04 16:44 809K
20260504T12Z_MSC_GDPS_AirTemp_AGL-80m_LatLon0.15_PT135H.grib2 2026-05-04 16:44 913K
20260504T12Z_MSC_GDPS_AirTemp_IsbL-0001_LatLon0.15_PT135H.grib2 2026-05-04 16:44 668K
20260504T12Z_MSC_GDPS_AirTemp_IsbL-0005_LatLon0.15_PT135H.grib2 2026-05-04 16:44 696K
20260504T12Z_MSC_GDPS_AirTemp_IsbL-0010_LatLon0.15_PT135H.grib2 2026-05-04 16:44 702K
20260504T12Z_MSC_GDPS_AirTemp_IsbL-0020_LatLon0.15_PT135H.grib2 2026-05-04 16:44 724K
20260504T12Z_MSC_GDPS_AirTemp_IsbL-0030_LatLon0.15_PT135H.grib2 2026-05-04 16:44 839K
20260504T12Z_MSC_GDPS_AirTemp_IsbL-0050_LatLon0.15_PT135H.grib2 2026-05-04 16:44 886K
20260504T12Z_MSC_GDPS_AirTemp_IsbL-0100_LatLon0.15_PT135H.grib2 2026-05-04 16:44 966K
20260504T12Z_MSC_GDPS_AirTemp_IsbL-0150_LatLon0.15_PT135H.grib2 2026-05-04 16:44 1.0M
20260504T12Z_MSC_GDPS_AirTemp_IsbL-0175_LatLon0.15_PT135H.grib2 2026-05-04 16:44 966K
20260504T12Z_MSC_GDPS_AirTemp_IsbL-0200_LatLon0.15_PT135H.grib2 2026-05-04 16:44 971K
20260504T12Z_MSC_GDPS_AirTemp_IsbL-0225_LatLon0.15_PT135H.grib2 2026-05-04 16:44 965K
20260504T12Z_MSC_GDPS_AirTemp_IsbL-0250_LatLon0.15_PT135H.grib2 2026-05-04 16:44 1.0M
20260504T12Z_MSC_GDPS_AirTemp_IsbL-0275_LatLon0.15_PT135H.grib2 2026-05-04 16:44 1.0M
20260504T12Z_MSC_GDPS_AirTemp_IsbL-0300_LatLon0.15_PT135H.grib2 2026-05-04 16:44 1.0M
20260504T12Z_MSC_GDPS_AirTemp_IsbL-0350_LatLon0.15_PT135H.grib2 2026-05-04 16:44 928K
20260504T12Z_MSC_GDPS_AirTemp_IsbL-0400_LatLon0.15_PT135H.grib2 2026-05-04 16:44 941K
20260504T12Z_MSC_GDPS_AirTemp_IsbL-0450_LatLon0.15_PT135H.grib2 2026-05-04 16:44 964K
20260504T12Z_MSC_GDPS_AirTemp_IsbL-0500_LatLon0.15_PT135H.grib2 2026-05-04 16:44 1.0M
20260504T12Z_MSC_GDPS_AirTemp_IsbL-0550_LatLon0.15_PT135H.grib2 2026-05-04 16:44 800K
20260504T12Z_MSC_GDPS_AirTemp_IsbL-0600_LatLon0.15_PT135H.grib2 2026-05-04 16:44 888K
20260504T12Z_MSC_GDPS_AirTemp_IsbL-0650_LatLon0.15_PT135H.grib2 2026-05-04 16:44 915K
20260504T12Z_MSC_GDPS_AirTemp_IsbL-0700_LatLon0.15_PT135H.grib2 2026-05-04 16:44 949K
20260504T12Z_MSC_GDPS_AirTemp_IsbL-0750_LatLon0.15_PT135H.grib2 2026-05-04 16:44 1.0M
20260504T12Z_MSC_GDPS_AirTemp_IsbL-0800_LatLon0.15_PT135H.grib2 2026-05-04 16:44 1.1M
20260504T12Z_MSC_GDPS_AirTemp_IsbL-0850_LatLon0.15_PT135H.grib2 2026-05-04 16:44 1.1M
20260504T12Z_MSC_GDPS_AirTemp_IsbL-0875_LatLon0.15_PT135H.grib2 2026-05-04 16:44 1.2M
20260504T12Z_MSC_GDPS_AirTemp_IsbL-0900_LatLon0.15_PT135H.grib2 2026-05-04 16:44 1.1M
20260504T12Z_MSC_GDPS_AirTemp_IsbL-0925_LatLon0.15_PT135H.grib2 2026-05-04 16:44 1.1M
20260504T12Z_MSC_GDPS_AirTemp_IsbL-0950_LatLon0.15_PT135H.grib2 2026-05-04 16:44 1.1M
20260504T12Z_MSC_GDPS_AirTemp_IsbL-0970_LatLon0.15_PT135H.grib2 2026-05-04 16:44 1.1M
20260504T12Z_MSC_GDPS_AirTemp_IsbL-0985_LatLon0.15_PT135H.grib2 2026-05-04 16:44 1.1M
20260504T12Z_MSC_GDPS_AirTemp_IsbL-1000_LatLon0.15_PT135H.grib2 2026-05-04 16:44 1.1M
20260504T12Z_MSC_GDPS_AirTemp_IsbL-1015_LatLon0.15_PT135H.grib2 2026-05-04 16:44 1.1M
20260504T12Z_MSC_GDPS_Albedo_Sfc_LatLon0.15_PT135H.grib2 2026-05-04 16:44 245K
20260504T12Z_MSC_GDPS_CAPE_Sfc_LatLon0.15_PT135H.grib2 2026-05-04 16:44 3.9M
20260504T12Z_MSC_GDPS_CIN_Sfc_LatLon0.15_PT135H.grib2 2026-05-04 16:44 2.7M
20260504T12Z_MSC_GDPS_CloudWater_EAtm_LatLon0.15_PT135H.grib2 2026-05-04 16:44 538K
20260504T12Z_MSC_GDPS_ConvectivePrecip-Accum_Sfc_LatLon0.15_PT135H.grib2 2026-05-04 16:44 3.6M
20260504T12Z_MSC_GDPS_DewPointDepression_AGL-2m_LatLon0.15_PT135H.grib2 2026-05-04 16:44 763K
20260504T12Z_MSC_GDPS_DewPointDepression_IsbL-0010_LatLon0.15_PT135H.grib2 2026-05-04 16:44 92K
20260504T12Z_MSC_GDPS_DewPointDepression_IsbL-0020_LatLon0.15_PT135H.grib2 2026-05-04 16:44 87K
20260504T12Z_MSC_GDPS_DewPointDepression_IsbL-0030_LatLon0.15_PT135H.grib2 2026-05-04 16:44 101K
20260504T12Z_MSC_GDPS_DewPointDepression_IsbL-0050_LatLon0.15_PT135H.grib2 2026-05-04 16:44 382K
20260504T12Z_MSC_GDPS_DewPointDepression_IsbL-0100_LatLon0.15_PT135H.grib2 2026-05-04 16:44 395K
20260504T12Z_MSC_GDPS_DewPointDepression_IsbL-0150_LatLon0.15_PT135H.grib2 2026-05-04 16:44 498K
20260504T12Z_MSC_GDPS_DewPointDepression_IsbL-0175_LatLon0.15_PT135H.grib2 2026-05-04 16:44 601K
20260504T12Z_MSC_GDPS_DewPointDepression_IsbL-0200_LatLon0.15_PT135H.grib2 2026-05-04 16:44 695K
20260504T12Z_MSC_GDPS_DewPointDepression_IsbL-0225_LatLon0.15_PT135H.grib2 2026-05-04 16:44 770K
20260504T12Z_MSC_GDPS_DewPointDepression_IsbL-0250_LatLon0.15_PT135H.grib2 2026-05-04 16:44 865K
20260504T12Z_MSC_GDPS_DewPointDepression_IsbL-0275_LatLon0.15_PT135H.grib2 2026-05-04 16:44 893K
20260504T12Z_MSC_GDPS_DewPointDepression_IsbL-0300_LatLon0.15_PT135H.grib2 2026-05-04 16:44 938K
20260504T12Z_MSC_GDPS_DewPointDepression_IsbL-0350_LatLon0.15_PT135H.grib2 2026-05-04 16:44 955K
20260504T12Z_MSC_GDPS_DewPointDepression_IsbL-0400_LatLon0.15_PT135H.grib2 2026-05-04 16:44 1.0M
20260504T12Z_MSC_GDPS_DewPointDepression_IsbL-0450_LatLon0.15_PT135H.grib2 2026-05-04 16:44 1.0M
20260504T12Z_MSC_GDPS_DewPointDepression_IsbL-0500_LatLon0.15_PT135H.grib2 2026-05-04 16:44 1.0M
20260504T12Z_MSC_GDPS_DewPointDepression_IsbL-0550_LatLon0.15_PT135H.grib2 2026-05-04 16:44 1.0M
20260504T12Z_MSC_GDPS_DewPointDepression_IsbL-0600_LatLon0.15_PT135H.grib2 2026-05-04 16:44 1.0M
20260504T12Z_MSC_GDPS_DewPointDepression_IsbL-0650_LatLon0.15_PT135H.grib2 2026-05-04 16:44 1.1M
20260504T12Z_MSC_GDPS_DewPointDepression_IsbL-0700_LatLon0.15_PT135H.grib2 2026-05-04 16:44 1.1M
20260504T12Z_MSC_GDPS_DewPointDepression_IsbL-0750_LatLon0.15_PT135H.grib2 2026-05-04 16:44 1.1M
20260504T12Z_MSC_GDPS_DewPointDepression_IsbL-0800_LatLon0.15_PT135H.grib2 2026-05-04 16:44 1.2M
20260504T12Z_MSC_GDPS_DewPointDepression_IsbL-0850_LatLon0.15_PT135H.grib2 2026-05-04 16:44 1.2M
20260504T12Z_MSC_GDPS_DewPointDepression_IsbL-0875_LatLon0.15_PT135H.grib2 2026-05-04 16:44 1.1M
20260504T12Z_MSC_GDPS_DewPointDepression_IsbL-0900_LatLon0.15_PT135H.grib2 2026-05-04 16:44 1.1M
20260504T12Z_MSC_GDPS_DewPointDepression_IsbL-0925_LatLon0.15_PT135H.grib2 2026-05-04 16:44 1.0M
20260504T12Z_MSC_GDPS_DewPointDepression_IsbL-0950_LatLon0.15_PT135H.grib2 2026-05-04 16:44 1.0M
20260504T12Z_MSC_GDPS_DewPointDepression_IsbL-0970_LatLon0.15_PT135H.grib2 2026-05-04 16:44 1.0M
20260504T12Z_MSC_GDPS_DewPointDepression_IsbL-0985_LatLon0.15_PT135H.grib2 2026-05-04 16:44 1.0M
20260504T12Z_MSC_GDPS_DewPointDepression_IsbL-1000_LatLon0.15_PT135H.grib2 2026-05-04 16:44 965K
20260504T12Z_MSC_GDPS_DewPointDepression_IsbL-1015_LatLon0.15_PT135H.grib2 2026-05-04 16:44 907K
20260504T12Z_MSC_GDPS_DewPoint_AGL-2m_LatLon0.15_PT135H.grib2 2026-05-04 16:44 602K
20260504T12Z_MSC_GDPS_DownwardLongwaveRadiationFlux-Accum_Sfc_LatLon0.15_PT135H.grib2 2026-05-04 16:44 832K
20260504T12Z_MSC_GDPS_DownwardShortwaveRadiationFlux-Accum_NTAtm_LatLon0.15_PT135H.grib2 2026-05-04 16:44 189K
20260504T12Z_MSC_GDPS_DownwardShortwaveRadiationFlux-Accum_Sfc_LatLon0.15_PT135H.grib2 2026-05-04 16:44 1.0M
20260504T12Z_MSC_GDPS_FreezingRain-Accum1h_Sfc_LatLon0.15_PT135H.grib2 2026-05-04 16:44 43K
20260504T12Z_MSC_GDPS_FreezingRain-Accum3h_Sfc_LatLon0.15_PT135H.grib2 2026-05-04 16:44 50K
20260504T12Z_MSC_GDPS_FreezingRain-Accum_Sfc_LatLon0.15_PT135H.grib2 2026-05-04 16:44 393K
20260504T12Z_MSC_GDPS_GeopotentialHeight_IsbL-0001_LatLon0.15_PT135H.grib2 2026-05-04 16:44 442K
20260504T12Z_MSC_GDPS_GeopotentialHeight_IsbL-0005_LatLon0.15_PT135H.grib2 2026-05-04 16:44 486K
20260504T12Z_MSC_GDPS_GeopotentialHeight_IsbL-0010_LatLon0.15_PT135H.grib2 2026-05-04 16:44 479K
20260504T12Z_MSC_GDPS_GeopotentialHeight_IsbL-0020_LatLon0.15_PT135H.grib2 2026-05-04 16:44 413K
20260504T12Z_MSC_GDPS_GeopotentialHeight_IsbL-0030_LatLon0.15_PT135H.grib2 2026-05-04 16:44 418K
20260504T12Z_MSC_GDPS_GeopotentialHeight_IsbL-0050_LatLon0.15_PT135H.grib2 2026-05-04 16:44 580K
20260504T12Z_MSC_GDPS_GeopotentialHeight_IsbL-0100_LatLon0.15_PT135H.grib2 2026-05-04 16:44 620K
20260504T12Z_MSC_GDPS_GeopotentialHeight_IsbL-0150_LatLon0.15_PT135H.grib2 2026-05-04 16:44 637K
20260504T12Z_MSC_GDPS_GeopotentialHeight_IsbL-0175_LatLon0.15_PT135H.grib2 2026-05-04 16:44 640K
20260504T12Z_MSC_GDPS_GeopotentialHeight_IsbL-0200_LatLon0.15_PT135H.grib2 2026-05-04 16:44 644K
20260504T12Z_MSC_GDPS_GeopotentialHeight_IsbL-0225_LatLon0.15_PT135H.grib2 2026-05-04 16:44 644K
20260504T12Z_MSC_GDPS_GeopotentialHeight_IsbL-0250_LatLon0.15_PT135H.grib2 2026-05-04 16:44 640K
20260504T12Z_MSC_GDPS_GeopotentialHeight_IsbL-0275_LatLon0.15_PT135H.grib2 2026-05-04 16:44 639K
20260504T12Z_MSC_GDPS_GeopotentialHeight_IsbL-0300_LatLon0.15_PT135H.grib2 2026-05-04 16:44 631K
20260504T12Z_MSC_GDPS_GeopotentialHeight_IsbL-0350_LatLon0.15_PT135H.grib2 2026-05-04 16:44 629K
20260504T12Z_MSC_GDPS_GeopotentialHeight_IsbL-0400_LatLon0.15_PT135H.grib2 2026-05-04 16:44 620K
20260504T12Z_MSC_GDPS_GeopotentialHeight_IsbL-0450_LatLon0.15_PT135H.grib2 2026-05-04 16:44 611K
20260504T12Z_MSC_GDPS_GeopotentialHeight_IsbL-0500_LatLon0.15_PT135H.grib2 2026-05-04 16:44 533K
20260504T12Z_MSC_GDPS_GeopotentialHeight_IsbL-0550_LatLon0.15_PT135H.grib2 2026-05-04 16:44 527K
20260504T12Z_MSC_GDPS_GeopotentialHeight_IsbL-0600_LatLon0.15_PT135H.grib2 2026-05-04 16:44 521K
20260504T12Z_MSC_GDPS_GeopotentialHeight_IsbL-0650_LatLon0.15_PT135H.grib2 2026-05-04 16:44 522K
20260504T12Z_MSC_GDPS_GeopotentialHeight_IsbL-0700_LatLon0.15_PT135H.grib2 2026-05-04 16:44 692K
20260504T12Z_MSC_GDPS_GeopotentialHeight_IsbL-0750_LatLon0.15_PT135H.grib2 2026-05-04 16:44 691K
20260504T12Z_MSC_GDPS_GeopotentialHeight_IsbL-0800_LatLon0.15_PT135H.grib2 2026-05-04 16:44 700K
20260504T12Z_MSC_GDPS_GeopotentialHeight_IsbL-0850_LatLon0.15_PT135H.grib2 2026-05-04 16:44 719K
20260504T12Z_MSC_GDPS_GeopotentialHeight_IsbL-0875_LatLon0.15_PT135H.grib2 2026-05-04 16:44 724K
20260504T12Z_MSC_GDPS_GeopotentialHeight_IsbL-0900_LatLon0.15_PT135H.grib2 2026-05-04 16:44 731K
20260504T12Z_MSC_GDPS_GeopotentialHeight_IsbL-0925_LatLon0.15_PT135H.grib2 2026-05-04 16:44 734K
20260504T12Z_MSC_GDPS_GeopotentialHeight_IsbL-0950_LatLon0.15_PT135H.grib2 2026-05-04 16:44 745K
20260504T12Z_MSC_GDPS_GeopotentialHeight_IsbL-0970_LatLon0.15_PT135H.grib2 2026-05-04 16:44 756K
20260504T12Z_MSC_GDPS_GeopotentialHeight_IsbL-0985_LatLon0.15_PT135H.grib2 2026-05-04 16:44 770K
20260504T12Z_MSC_GDPS_GeopotentialHeight_IsbL-1000_LatLon0.15_PT135H.grib2 2026-05-04 16:44 791K
20260504T12Z_MSC_GDPS_GeopotentialHeight_IsbL-1015_LatLon0.15_PT135H.grib2 2026-05-04 16:44 620K
20260504T12Z_MSC_GDPS_IcePellets-Accum1h_Sfc_LatLon0.15_PT135H.grib2 2026-05-04 16:44 29K
20260504T12Z_MSC_GDPS_IcePellets-Accum3h_Sfc_LatLon0.15_PT135H.grib2 2026-05-04 16:44 36K
20260504T12Z_MSC_GDPS_IcePellets-Accum_Sfc_LatLon0.15_PT135H.grib2 2026-05-04 16:44 156K
20260504T12Z_MSC_GDPS_KIndex_Sfc_LatLon0.15_PT135H.grib2 2026-05-04 16:44 6.5M
20260504T12Z_MSC_GDPS_LatentHeatNetFlux_Sfc_LatLon0.15_PT135H.grib2 2026-05-04 16:44 690K
20260504T12Z_MSC_GDPS_LiftedIndex-MU-VT_IsbL-0500_LatLon0.15_PT135H.grib2 2026-05-04 16:44 5.4M
20260504T12Z_MSC_GDPS_NetLongwaveRadiationFlux-Accum_Sfc_LatLon0.15_PT135H.grib2 2026-05-04 16:44 1.1M
20260504T12Z_MSC_GDPS_NetShortwaveRadiationFlux-Accum_Sfc_LatLon0.15_PT135H.grib2 2026-05-04 16:44 1.0M
20260504T12Z_MSC_GDPS_O3MixingRatio_Sfc_LatLon0.15_PT135H.grib2 2026-05-04 17:19 1.9M
20260504T12Z_MSC_GDPS_O3_EAtm_LatLon0.15_PT135H.grib2 2026-05-04 17:19 2.4M
20260504T12Z_MSC_GDPS_PlanetaryBoundaryLayerHeight_Sfc_LatLon0.15_PT135H.grib2 2026-05-04 16:44 2.4M
20260504T12Z_MSC_GDPS_Precip-Accum1h_Sfc_LatLon0.15_PT135H.grib2 2026-05-04 16:44 3.2M
20260504T12Z_MSC_GDPS_Precip-Accum3h_Sfc_LatLon0.15_PT135H.grib2 2026-05-04 16:44 3.5M
20260504T12Z_MSC_GDPS_Precip-Accum_Sfc_LatLon0.15_PT135H.grib2 2026-05-04 16:44 5.2M
20260504T12Z_MSC_GDPS_PrecipRate_Sfc_LatLon0.15_PT135H.grib2 2026-05-04 16:44 3.0M
20260504T12Z_MSC_GDPS_PrecipType-Instant_Sfc_LatLon0.15_PT135H.grib2 2026-05-04 16:44 1.5M
20260504T12Z_MSC_GDPS_Pressure_MSL_LatLon0.15_PT135H.grib2 2026-05-04 16:44 823K
20260504T12Z_MSC_GDPS_Pressure_Sfc_LatLon0.15_PT135H.grib2 2026-05-04 16:44 1.1M
20260504T12Z_MSC_GDPS_RadiativeTemp_Sfc_LatLon0.15_PT135H.grib2 2026-05-04 16:44 660K
20260504T12Z_MSC_GDPS_Rain-Accum1h_Sfc_LatLon0.15_PT135H.grib2 2026-05-04 16:44 1.6M
20260504T12Z_MSC_GDPS_Rain-Accum3h_Sfc_LatLon0.15_PT135H.grib2 2026-05-04 16:44 1.7M
20260504T12Z_MSC_GDPS_Rain-Accum_Sfc_LatLon0.15_PT135H.grib2 2026-05-04 16:44 4.1M
20260504T12Z_MSC_GDPS_RelativeHumidity_AGL-2m_LatLon0.15_PT135H.grib2 2026-05-04 16:44 1.0M
20260504T12Z_MSC_GDPS_RelativeHumidity_IsbL-0010_LatLon0.15_PT135H.grib2 2026-05-04 16:44 153K
20260504T12Z_MSC_GDPS_RelativeHumidity_IsbL-0020_LatLon0.15_PT135H.grib2 2026-05-04 16:44 168K
20260504T12Z_MSC_GDPS_RelativeHumidity_IsbL-0030_LatLon0.15_PT135H.grib2 2026-05-04 16:44 190K
20260504T12Z_MSC_GDPS_RelativeHumidity_IsbL-0050_LatLon0.15_PT135H.grib2 2026-05-04 16:44 339K
20260504T12Z_MSC_GDPS_RelativeHumidity_IsbL-0100_LatLon0.15_PT135H.grib2 2026-05-04 16:44 501K
20260504T12Z_MSC_GDPS_RelativeHumidity_IsbL-0150_LatLon0.15_PT135H.grib2 2026-05-04 16:44 675K
20260504T12Z_MSC_GDPS_RelativeHumidity_IsbL-0175_LatLon0.15_PT135H.grib2 2026-05-04 16:44 809K
20260504T12Z_MSC_GDPS_RelativeHumidity_IsbL-0200_LatLon0.15_PT135H.grib2 2026-05-04 16:44 714K
20260504T12Z_MSC_GDPS_RelativeHumidity_IsbL-0225_LatLon0.15_PT135H.grib2 2026-05-04 16:44 786K
20260504T12Z_MSC_GDPS_RelativeHumidity_IsbL-0250_LatLon0.15_PT135H.grib2 2026-05-04 16:44 856K
20260504T12Z_MSC_GDPS_RelativeHumidity_IsbL-0275_LatLon0.15_PT135H.grib2 2026-05-04 16:44 879K
20260504T12Z_MSC_GDPS_RelativeHumidity_IsbL-0300_LatLon0.15_PT135H.grib2 2026-05-04 16:44 921K
20260504T12Z_MSC_GDPS_RelativeHumidity_IsbL-0350_LatLon0.15_PT135H.grib2 2026-05-04 16:44 934K
20260504T12Z_MSC_GDPS_RelativeHumidity_IsbL-0400_LatLon0.15_PT135H.grib2 2026-05-04 16:44 955K
20260504T12Z_MSC_GDPS_RelativeHumidity_IsbL-0450_LatLon0.15_PT135H.grib2 2026-05-04 16:44 1.0M
20260504T12Z_MSC_GDPS_RelativeHumidity_IsbL-0500_LatLon0.15_PT135H.grib2 2026-05-04 16:44 1.0M
20260504T12Z_MSC_GDPS_RelativeHumidity_IsbL-0550_LatLon0.15_PT135H.grib2 2026-05-04 16:44 1.0M
20260504T12Z_MSC_GDPS_RelativeHumidity_IsbL-0600_LatLon0.15_PT135H.grib2 2026-05-04 16:44 1.0M
20260504T12Z_MSC_GDPS_RelativeHumidity_IsbL-0650_LatLon0.15_PT135H.grib2 2026-05-04 16:44 1.1M
20260504T12Z_MSC_GDPS_RelativeHumidity_IsbL-0700_LatLon0.15_PT135H.grib2 2026-05-04 16:44 1.1M
20260504T12Z_MSC_GDPS_RelativeHumidity_IsbL-0750_LatLon0.15_PT135H.grib2 2026-05-04 16:44 1.2M
20260504T12Z_MSC_GDPS_RelativeHumidity_IsbL-0800_LatLon0.15_PT135H.grib2 2026-05-04 16:44 1.2M
20260504T12Z_MSC_GDPS_RelativeHumidity_IsbL-0850_LatLon0.15_PT135H.grib2 2026-05-04 16:44 1.3M
20260504T12Z_MSC_GDPS_RelativeHumidity_IsbL-0875_LatLon0.15_PT135H.grib2 2026-05-04 16:44 1.3M
20260504T12Z_MSC_GDPS_RelativeHumidity_IsbL-0900_LatLon0.15_PT135H.grib2 2026-05-04 16:44 1.2M
20260504T12Z_MSC_GDPS_RelativeHumidity_IsbL-0925_LatLon0.15_PT135H.grib2 2026-05-04 16:44 1.2M
20260504T12Z_MSC_GDPS_RelativeHumidity_IsbL-0950_LatLon0.15_PT135H.grib2 2026-05-04 16:44 1.2M
20260504T12Z_MSC_GDPS_RelativeHumidity_IsbL-0970_LatLon0.15_PT135H.grib2 2026-05-04 16:44 1.2M
20260504T12Z_MSC_GDPS_RelativeHumidity_IsbL-0985_LatLon0.15_PT135H.grib2 2026-05-04 16:44 1.1M
20260504T12Z_MSC_GDPS_RelativeHumidity_IsbL-1000_LatLon0.15_PT135H.grib2 2026-05-04 16:44 1.1M
20260504T12Z_MSC_GDPS_RelativeHumidity_IsbL-1015_LatLon0.15_PT135H.grib2 2026-05-04 16:44 1.0M
20260504T12Z_MSC_GDPS_RelativeVorticity_IsbL-0200_LatLon0.15_PT135H.grib2 2026-05-04 16:44 1.5M
20260504T12Z_MSC_GDPS_RelativeVorticity_IsbL-0250_LatLon0.15_PT135H.grib2 2026-05-04 16:44 1.3M
20260504T12Z_MSC_GDPS_RelativeVorticity_IsbL-0500_LatLon0.15_PT135H.grib2 2026-05-04 16:44 1.5M
20260504T12Z_MSC_GDPS_RelativeVorticity_IsbL-0700_LatLon0.15_PT135H.grib2 2026-05-04 16:44 1.3M
20260504T12Z_MSC_GDPS_RelativeVorticity_IsbL-0850_LatLon0.15_PT135H.grib2 2026-05-04 16:44 1.6M
20260504T12Z_MSC_GDPS_Runoff-Accum_Sfc_LatLon0.15_PT135H.grib2 2026-05-04 16:44 151K
20260504T12Z_MSC_GDPS_SensibleHeatNetFlux_Sfc_LatLon0.15_PT135H.grib2 2026-05-04 16:44 473K
20260504T12Z_MSC_GDPS_ShowalterIndex_IsbL-0500_LatLon0.15_PT135H.grib2 2026-05-04 16:44 6.2M
20260504T12Z_MSC_GDPS_Snow-Accum1h_Sfc_LatLon0.15_PT135H.grib2 2026-05-04 16:44 1.0M
20260504T12Z_MSC_GDPS_Snow-Accum3h_Sfc_LatLon0.15_PT135H.grib2 2026-05-04 16:44 907K
20260504T12Z_MSC_GDPS_Snow-Accum_Sfc_LatLon0.15_PT135H.grib2 2026-05-04 16:44 2.0M
20260504T12Z_MSC_GDPS_SnowDensity_Sfc_LatLon0.15_PT135H.grib2 2026-05-04 16:44 259K
20260504T12Z_MSC_GDPS_SnowDepth_Sfc_LatLon0.15_PT135H.grib2 2026-05-04 16:44 1.7M
20260504T12Z_MSC_GDPS_SoilTemp_DBS-0to10cm_LatLon0.15_PT135H.grib2 2026-05-04 16:44 514K
20260504T12Z_MSC_GDPS_SoilTemp_Sfc_LatLon0.15_PT135H.grib2 2026-05-04 16:44 583K
20260504T12Z_MSC_GDPS_SoilVolumetricIceContent_Sfc_LatLon0.15_PT135H.grib2 2026-05-04 16:44 178K
20260504T12Z_MSC_GDPS_SoilVolumetricWaterContent_DBS-0to10cm_LatLon0.15_PT135H.grib2 2026-05-04 16:44 600K
20260504T12Z_MSC_GDPS_SoilVolumetricWaterContent_DBS-0to1cm_LatLon0.15_PT135H.grib2 2026-05-04 16:44 656K
20260504T12Z_MSC_GDPS_SpecificHumidity_AGL-120m_LatLon0.15_PT135H.grib2 2026-05-04 16:44 1.1M
20260504T12Z_MSC_GDPS_SpecificHumidity_AGL-2m_LatLon0.15_PT135H.grib2 2026-05-04 16:44 1.2M
20260504T12Z_MSC_GDPS_SpecificHumidity_AGL-40m_LatLon0.15_PT135H.grib2 2026-05-04 16:44 1.1M
20260504T12Z_MSC_GDPS_SpecificHumidity_AGL-80m_LatLon0.15_PT135H.grib2 2026-05-04 16:44 1.1M
20260504T12Z_MSC_GDPS_SpecificHumidity_IsbL-0001_LatLon0.15_PT135H.grib2 2026-05-04 16:44 1.2M
20260504T12Z_MSC_GDPS_SpecificHumidity_IsbL-0005_LatLon0.15_PT135H.grib2 2026-05-04 16:44 1.1M
20260504T12Z_MSC_GDPS_SpecificHumidity_IsbL-0010_LatLon0.15_PT135H.grib2 2026-05-04 16:44 1.2M
20260504T12Z_MSC_GDPS_SpecificHumidity_IsbL-0020_LatLon0.15_PT135H.grib2 2026-05-04 16:44 1.2M
20260504T12Z_MSC_GDPS_SpecificHumidity_IsbL-0030_LatLon0.15_PT135H.grib2 2026-05-04 16:44 1.2M
20260504T12Z_MSC_GDPS_SpecificHumidity_IsbL-0050_LatLon0.15_PT135H.grib2 2026-05-04 16:44 1.5M
20260504T12Z_MSC_GDPS_SpecificHumidity_IsbL-0100_LatLon0.15_PT135H.grib2 2026-05-04 16:44 1.2M
20260504T12Z_MSC_GDPS_SpecificHumidity_IsbL-0150_LatLon0.15_PT135H.grib2 2026-05-04 16:44 1.3M
20260504T12Z_MSC_GDPS_SpecificHumidity_IsbL-0175_LatLon0.15_PT135H.grib2 2026-05-04 16:44 1.3M
20260504T12Z_MSC_GDPS_SpecificHumidity_IsbL-0200_LatLon0.15_PT135H.grib2 2026-05-04 16:44 1.3M
20260504T12Z_MSC_GDPS_SpecificHumidity_IsbL-0225_LatLon0.15_PT135H.grib2 2026-05-04 16:44 1.3M
20260504T12Z_MSC_GDPS_SpecificHumidity_IsbL-0250_LatLon0.15_PT135H.grib2 2026-05-04 16:44 1.2M
20260504T12Z_MSC_GDPS_SpecificHumidity_IsbL-0275_LatLon0.15_PT135H.grib2 2026-05-04 16:44 1.3M
20260504T12Z_MSC_GDPS_SpecificHumidity_IsbL-0300_LatLon0.15_PT135H.grib2 2026-05-04 16:44 1.2M
20260504T12Z_MSC_GDPS_SpecificHumidity_IsbL-0350_LatLon0.15_PT135H.grib2 2026-05-04 16:44 1.2M
20260504T12Z_MSC_GDPS_SpecificHumidity_IsbL-0400_LatLon0.15_PT135H.grib2 2026-05-04 16:44 1.5M
20260504T12Z_MSC_GDPS_SpecificHumidity_IsbL-0450_LatLon0.15_PT135H.grib2 2026-05-04 16:44 1.3M
20260504T12Z_MSC_GDPS_SpecificHumidity_IsbL-0500_LatLon0.15_PT135H.grib2 2026-05-04 16:44 1.4M
20260504T12Z_MSC_GDPS_SpecificHumidity_IsbL-0550_LatLon0.15_PT135H.grib2 2026-05-04 16:44 1.6M
20260504T12Z_MSC_GDPS_SpecificHumidity_IsbL-0600_LatLon0.15_PT135H.grib2 2026-05-04 16:44 1.4M
20260504T12Z_MSC_GDPS_SpecificHumidity_IsbL-0650_LatLon0.15_PT135H.grib2 2026-05-04 16:44 1.5M
20260504T12Z_MSC_GDPS_SpecificHumidity_IsbL-0700_LatLon0.15_PT135H.grib2 2026-05-04 16:44 1.6M
20260504T12Z_MSC_GDPS_SpecificHumidity_IsbL-0750_LatLon0.15_PT135H.grib2 2026-05-04 16:44 1.7M
20260504T12Z_MSC_GDPS_SpecificHumidity_IsbL-0800_LatLon0.15_PT135H.grib2 2026-05-04 16:44 1.9M
20260504T12Z_MSC_GDPS_SpecificHumidity_IsbL-0850_LatLon0.15_PT135H.grib2 2026-05-04 16:44 2.0M
20260504T12Z_MSC_GDPS_SpecificHumidity_IsbL-0875_LatLon0.15_PT135H.grib2 2026-05-04 16:44 2.0M
20260504T12Z_MSC_GDPS_SpecificHumidity_IsbL-0900_LatLon0.15_PT135H.grib2 2026-05-04 16:44 1.9M
20260504T12Z_MSC_GDPS_SpecificHumidity_IsbL-0925_LatLon0.15_PT135H.grib2 2026-05-04 16:44 1.6M
20260504T12Z_MSC_GDPS_SpecificHumidity_IsbL-0950_LatLon0.15_PT135H.grib2 2026-05-04 16:44 1.6M
20260504T12Z_MSC_GDPS_SpecificHumidity_IsbL-0970_LatLon0.15_PT135H.grib2 2026-05-04 16:44 1.5M
20260504T12Z_MSC_GDPS_SpecificHumidity_IsbL-0985_LatLon0.15_PT135H.grib2 2026-05-04 16:44 1.5M
20260504T12Z_MSC_GDPS_SpecificHumidity_IsbL-1000_LatLon0.15_PT135H.grib2 2026-05-04 16:44 1.5M
20260504T12Z_MSC_GDPS_SpecificHumidity_IsbL-1015_LatLon0.15_PT135H.grib2 2026-05-04 16:44 1.5M
20260504T12Z_MSC_GDPS_SpecificHumidity_Sfc_LatLon0.15_PT135H.grib2 2026-05-04 16:44 641K
20260504T12Z_MSC_GDPS_Thickness_IsbL-0850to0700_LatLon0.15_PT135H.grib2 2026-05-04 16:44 472K
20260504T12Z_MSC_GDPS_Thickness_IsbL-1000to0500_LatLon0.15_PT135H.grib2 2026-05-04 16:44 380K
20260504T12Z_MSC_GDPS_Thickness_IsbL-1000to0850_LatLon0.15_PT135H.grib2 2026-05-04 16:44 494K
20260504T12Z_MSC_GDPS_TotalCloudCover_Sfc_LatLon0.15_PT135H.grib2 2026-05-04 16:44 815K
20260504T12Z_MSC_GDPS_TotalTotalsIndex_Sfc_LatLon0.15_PT135H.grib2 2026-05-04 16:44 6.2M
20260504T12Z_MSC_GDPS_UVIndex-ClearSky_Sfc_LatLon0.15_PT135H.grib2 2026-05-04 17:19 1.0M
20260504T12Z_MSC_GDPS_UVIndex_Sfc_LatLon0.15_PT135H.grib2 2026-05-04 17:19 1.5M
20260504T12Z_MSC_GDPS_UpwardLongwaveRadiationFlux_NTAtm_LatLon0.15_PT135H.grib2 2026-05-04 16:44 1.0M
20260504T12Z_MSC_GDPS_VerticalVelocity_IsbL-0200_LatLon0.15_PT135H.grib2 2026-05-04 16:44 945K
20260504T12Z_MSC_GDPS_VerticalVelocity_IsbL-0250_LatLon0.15_PT135H.grib2 2026-05-04 16:44 1.1M
20260504T12Z_MSC_GDPS_VerticalVelocity_IsbL-0500_LatLon0.15_PT135H.grib2 2026-05-04 16:44 1.0M
20260504T12Z_MSC_GDPS_VerticalVelocity_IsbL-0600_LatLon0.15_PT135H.grib2 2026-05-04 16:44 1.1M
20260504T12Z_MSC_GDPS_VerticalVelocity_IsbL-0700_LatLon0.15_PT135H.grib2 2026-05-04 16:44 1.1M
20260504T12Z_MSC_GDPS_VerticalVelocity_IsbL-0850_LatLon0.15_PT135H.grib2 2026-05-04 16:44 1.3M
20260504T12Z_MSC_GDPS_WindChill_Sfc_LatLon0.15_PT135H.grib2 2026-05-04 16:44 5.3M
20260504T12Z_MSC_GDPS_WindDir_AGL-10m_LatLon0.15_PT135H.grib2 2026-05-04 16:44 1.3M
20260504T12Z_MSC_GDPS_WindDir_AGL-120m_LatLon0.15_PT135H.grib2 2026-05-04 16:44 1.3M
20260504T12Z_MSC_GDPS_WindDir_AGL-40m_LatLon0.15_PT135H.grib2 2026-05-04 16:44 1.4M
20260504T12Z_MSC_GDPS_WindDir_AGL-80m_LatLon0.15_PT135H.grib2 2026-05-04 16:44 1.3M
20260504T12Z_MSC_GDPS_WindDir_IsbL-0001_LatLon0.15_PT135H.grib2 2026-05-04 16:44 660K
20260504T12Z_MSC_GDPS_WindDir_IsbL-0005_LatLon0.15_PT135H.grib2 2026-05-04 16:44 798K
20260504T12Z_MSC_GDPS_WindDir_IsbL-0010_LatLon0.15_PT135H.grib2 2026-05-04 16:44 831K
20260504T12Z_MSC_GDPS_WindDir_IsbL-0020_LatLon0.15_PT135H.grib2 2026-05-04 16:44 935K
20260504T12Z_MSC_GDPS_WindDir_IsbL-0030_LatLon0.15_PT135H.grib2 2026-05-04 16:44 944K
20260504T12Z_MSC_GDPS_WindDir_IsbL-0050_LatLon0.15_PT135H.grib2 2026-05-04 16:44 940K
20260504T12Z_MSC_GDPS_WindDir_IsbL-0100_LatLon0.15_PT135H.grib2 2026-05-04 16:44 1.0M
20260504T12Z_MSC_GDPS_WindDir_IsbL-0150_LatLon0.15_PT135H.grib2 2026-05-04 16:44 1.0M
20260504T12Z_MSC_GDPS_WindDir_IsbL-0175_LatLon0.15_PT135H.grib2 2026-05-04 16:44 1.0M
20260504T12Z_MSC_GDPS_WindDir_IsbL-0200_LatLon0.15_PT135H.grib2 2026-05-04 16:44 1.1M
20260504T12Z_MSC_GDPS_WindDir_IsbL-0225_LatLon0.15_PT135H.grib2 2026-05-04 16:44 1.1M
20260504T12Z_MSC_GDPS_WindDir_IsbL-0250_LatLon0.15_PT135H.grib2 2026-05-04 16:44 1.1M
20260504T12Z_MSC_GDPS_WindDir_IsbL-0275_LatLon0.15_PT135H.grib2 2026-05-04 16:44 1.2M
20260504T12Z_MSC_GDPS_WindDir_IsbL-0300_LatLon0.15_PT135H.grib2 2026-05-04 16:44 1.2M
20260504T12Z_MSC_GDPS_WindDir_IsbL-0350_LatLon0.15_PT135H.grib2 2026-05-04 16:44 1.2M
20260504T12Z_MSC_GDPS_WindDir_IsbL-0400_LatLon0.15_PT135H.grib2 2026-05-04 16:44 1.3M
20260504T12Z_MSC_GDPS_WindDir_IsbL-0450_LatLon0.15_PT135H.grib2 2026-05-04 16:44 1.3M
20260504T12Z_MSC_GDPS_WindDir_IsbL-0500_LatLon0.15_PT135H.grib2 2026-05-04 16:44 1.4M
20260504T12Z_MSC_GDPS_WindDir_IsbL-0550_LatLon0.15_PT135H.grib2 2026-05-04 16:44 1.4M
20260504T12Z_MSC_GDPS_WindDir_IsbL-0600_LatLon0.15_PT135H.grib2 2026-05-04 16:44 1.4M
20260504T12Z_MSC_GDPS_WindDir_IsbL-0650_LatLon0.15_PT135H.grib2 2026-05-04 16:44 1.5M
20260504T12Z_MSC_GDPS_WindDir_IsbL-0700_LatLon0.15_PT135H.grib2 2026-05-04 16:44 1.6M
20260504T12Z_MSC_GDPS_WindDir_IsbL-0750_LatLon0.15_PT135H.grib2 2026-05-04 16:44 1.7M
20260504T12Z_MSC_GDPS_WindDir_IsbL-0800_LatLon0.15_PT135H.grib2 2026-05-04 16:44 1.8M
20260504T12Z_MSC_GDPS_WindDir_IsbL-0850_LatLon0.15_PT135H.grib2 2026-05-04 16:44 1.9M
20260504T12Z_MSC_GDPS_WindDir_IsbL-0875_LatLon0.15_PT135H.grib2 2026-05-04 16:44 1.9M
20260504T12Z_MSC_GDPS_WindDir_IsbL-0900_LatLon0.15_PT135H.grib2 2026-05-04 16:44 1.9M
20260504T12Z_MSC_GDPS_WindDir_IsbL-0925_LatLon0.15_PT135H.grib2 2026-05-04 16:44 1.9M
20260504T12Z_MSC_GDPS_WindDir_IsbL-0950_LatLon0.15_PT135H.grib2 2026-05-04 16:44 1.9M
20260504T12Z_MSC_GDPS_WindDir_IsbL-0970_LatLon0.15_PT135H.grib2 2026-05-04 16:44 2.0M
20260504T12Z_MSC_GDPS_WindDir_IsbL-0985_LatLon0.15_PT135H.grib2 2026-05-04 16:44 2.0M
20260504T12Z_MSC_GDPS_WindDir_IsbL-1000_LatLon0.15_PT135H.grib2 2026-05-04 16:44 2.0M
20260504T12Z_MSC_GDPS_WindDir_IsbL-1015_LatLon0.15_PT135H.grib2 2026-05-04 16:44 2.0M
20260504T12Z_MSC_GDPS_WindGust-Max_AGL-10m_LatLon0.15_PT135H.grib2 2026-05-04 16:44 2.2M
20260504T12Z_MSC_GDPS_WindGust-Min_AGL-10m_LatLon0.15_PT135H.grib2 2026-05-04 16:44 2.2M
20260504T12Z_MSC_GDPS_WindGust_AGL-10m_LatLon0.15_PT135H.grib2 2026-05-04 16:44 2.2M
20260504T12Z_MSC_GDPS_WindSpeed_AGL-10m_LatLon0.15_PT135H.grib2 2026-05-04 16:44 1.1M
20260504T12Z_MSC_GDPS_WindSpeed_AGL-120m_LatLon0.15_PT135H.grib2 2026-05-04 16:44 1.2M
20260504T12Z_MSC_GDPS_WindSpeed_AGL-40m_LatLon0.15_PT135H.grib2 2026-05-04 16:44 1.2M
20260504T12Z_MSC_GDPS_WindSpeed_AGL-80m_LatLon0.15_PT135H.grib2 2026-05-04 16:44 1.2M
20260504T12Z_MSC_GDPS_WindSpeed_IsbL-0001_LatLon0.15_PT135H.grib2 2026-05-04 16:44 655K
20260504T12Z_MSC_GDPS_WindSpeed_IsbL-0005_LatLon0.15_PT135H.grib2 2026-05-04 16:44 695K
20260504T12Z_MSC_GDPS_WindSpeed_IsbL-0010_LatLon0.15_PT135H.grib2 2026-05-04 16:44 629K
20260504T12Z_MSC_GDPS_WindSpeed_IsbL-0020_LatLon0.15_PT135H.grib2 2026-05-04 16:44 665K
20260504T12Z_MSC_GDPS_WindSpeed_IsbL-0030_LatLon0.15_PT135H.grib2 2026-05-04 16:44 674K
20260504T12Z_MSC_GDPS_WindSpeed_IsbL-0050_LatLon0.15_PT135H.grib2 2026-05-04 16:44 903K
20260504T12Z_MSC_GDPS_WindSpeed_IsbL-0100_LatLon0.15_PT135H.grib2 2026-05-04 16:44 1.1M
20260504T12Z_MSC_GDPS_WindSpeed_IsbL-0150_LatLon0.15_PT135H.grib2 2026-05-04 16:44 1.0M
20260504T12Z_MSC_GDPS_WindSpeed_IsbL-0175_LatLon0.15_PT135H.grib2 2026-05-04 16:44 1.0M
20260504T12Z_MSC_GDPS_WindSpeed_IsbL-0200_LatLon0.15_PT135H.grib2 2026-05-04 16:44 1.1M
20260504T12Z_MSC_GDPS_WindSpeed_IsbL-0225_LatLon0.15_PT135H.grib2 2026-05-04 16:44 1.1M
20260504T12Z_MSC_GDPS_WindSpeed_IsbL-0250_LatLon0.15_PT135H.grib2 2026-05-04 16:44 1.1M
20260504T12Z_MSC_GDPS_WindSpeed_IsbL-0275_LatLon0.15_PT135H.grib2 2026-05-04 16:44 1.1M
20260504T12Z_MSC_GDPS_WindSpeed_IsbL-0300_LatLon0.15_PT135H.grib2 2026-05-04 16:44 1.1M
20260504T12Z_MSC_GDPS_WindSpeed_IsbL-0350_LatLon0.15_PT135H.grib2 2026-05-04 16:44 1.1M
20260504T12Z_MSC_GDPS_WindSpeed_IsbL-0400_LatLon0.15_PT135H.grib2 2026-05-04 16:44 1.1M
20260504T12Z_MSC_GDPS_WindSpeed_IsbL-0450_LatLon0.15_PT135H.grib2 2026-05-04 16:44 1.1M
20260504T12Z_MSC_GDPS_WindSpeed_IsbL-0500_LatLon0.15_PT135H.grib2 2026-05-04 16:44 1.1M
20260504T12Z_MSC_GDPS_WindSpeed_IsbL-0550_LatLon0.15_PT135H.grib2 2026-05-04 16:44 1.1M
20260504T12Z_MSC_GDPS_WindSpeed_IsbL-0600_LatLon0.15_PT135H.grib2 2026-05-04 16:44 1.1M
20260504T12Z_MSC_GDPS_WindSpeed_IsbL-0650_LatLon0.15_PT135H.grib2 2026-05-04 16:44 1.2M
20260504T12Z_MSC_GDPS_WindSpeed_IsbL-0700_LatLon0.15_PT135H.grib2 2026-05-04 16:44 1.5M
20260504T12Z_MSC_GDPS_WindSpeed_IsbL-0750_LatLon0.15_PT135H.grib2 2026-05-04 16:44 1.6M
20260504T12Z_MSC_GDPS_WindSpeed_IsbL-0800_LatLon0.15_PT135H.grib2 2026-05-04 16:44 1.6M
20260504T12Z_MSC_GDPS_WindSpeed_IsbL-0850_LatLon0.15_PT135H.grib2 2026-05-04 16:44 1.8M
20260504T12Z_MSC_GDPS_WindSpeed_IsbL-0875_LatLon0.15_PT135H.grib2 2026-05-04 16:44 1.9M
20260504T12Z_MSC_GDPS_WindSpeed_IsbL-0900_LatLon0.15_PT135H.grib2 2026-05-04 16:44 1.8M
20260504T12Z_MSC_GDPS_WindSpeed_IsbL-0925_LatLon0.15_PT135H.grib2 2026-05-04 16:44 1.8M
20260504T12Z_MSC_GDPS_WindSpeed_IsbL-0950_LatLon0.15_PT135H.grib2 2026-05-04 16:44 1.9M
20260504T12Z_MSC_GDPS_WindSpeed_IsbL-0970_LatLon0.15_PT135H.grib2 2026-05-04 16:44 1.9M
20260504T12Z_MSC_GDPS_WindSpeed_IsbL-0985_LatLon0.15_PT135H.grib2 2026-05-04 16:44 1.9M
20260504T12Z_MSC_GDPS_WindSpeed_IsbL-1000_LatLon0.15_PT135H.grib2 2026-05-04 16:44 1.8M
20260504T12Z_MSC_GDPS_WindSpeed_IsbL-1015_LatLon0.15_PT135H.grib2 2026-05-04 16:44 1.8M
20260504T12Z_MSC_GDPS_WindU_AGL-10m_LatLon0.15_PT135H.grib2 2026-05-04 16:44 1.6M
20260504T12Z_MSC_GDPS_WindU_AGL-120m_LatLon0.15_PT135H.grib2 2026-05-04 16:44 971K
20260504T12Z_MSC_GDPS_WindU_AGL-40m_LatLon0.15_PT135H.grib2 2026-05-04 16:44 962K
20260504T12Z_MSC_GDPS_WindU_AGL-80m_LatLon0.15_PT135H.grib2 2026-05-04 16:44 969K
20260504T12Z_MSC_GDPS_WindU_IsbL-0001_LatLon0.15_PT135H.grib2 2026-05-04 16:44 511K
20260504T12Z_MSC_GDPS_WindU_IsbL-0005_LatLon0.15_PT135H.grib2 2026-05-04 16:44 696K
20260504T12Z_MSC_GDPS_WindU_IsbL-0010_LatLon0.15_PT135H.grib2 2026-05-04 16:44 703K
20260504T12Z_MSC_GDPS_WindU_IsbL-0020_LatLon0.15_PT135H.grib2 2026-05-04 16:44 733K
20260504T12Z_MSC_GDPS_WindU_IsbL-0030_LatLon0.15_PT135H.grib2 2026-05-04 16:44 745K
20260504T12Z_MSC_GDPS_WindU_IsbL-0050_LatLon0.15_PT135H.grib2 2026-05-04 16:44 768K
20260504T12Z_MSC_GDPS_WindU_IsbL-0100_LatLon0.15_PT135H.grib2 2026-05-04 16:44 868K
20260504T12Z_MSC_GDPS_WindU_IsbL-0150_LatLon0.15_PT135H.grib2 2026-05-04 16:44 1.0M
20260504T12Z_MSC_GDPS_WindU_IsbL-0175_LatLon0.15_PT135H.grib2 2026-05-04 16:44 1.0M
20260504T12Z_MSC_GDPS_WindU_IsbL-0200_LatLon0.15_PT135H.grib2 2026-05-04 16:44 1.1M
20260504T12Z_MSC_GDPS_WindU_IsbL-0225_LatLon0.15_PT135H.grib2 2026-05-04 16:44 856K
20260504T12Z_MSC_GDPS_WindU_IsbL-0250_LatLon0.15_PT135H.grib2 2026-05-04 16:44 854K
20260504T12Z_MSC_GDPS_WindU_IsbL-0275_LatLon0.15_PT135H.grib2 2026-05-04 16:44 877K
20260504T12Z_MSC_GDPS_WindU_IsbL-0300_LatLon0.15_PT135H.grib2 2026-05-04 16:44 865K
20260504T12Z_MSC_GDPS_WindU_IsbL-0350_LatLon0.15_PT135H.grib2 2026-05-04 16:44 880K
20260504T12Z_MSC_GDPS_WindU_IsbL-0400_LatLon0.15_PT135H.grib2 2026-05-04 16:44 883K
20260504T12Z_MSC_GDPS_WindU_IsbL-0450_LatLon0.15_PT135H.grib2 2026-05-04 16:44 1.1M
20260504T12Z_MSC_GDPS_WindU_IsbL-0500_LatLon0.15_PT135H.grib2 2026-05-04 16:44 1.1M
20260504T12Z_MSC_GDPS_WindU_IsbL-0550_LatLon0.15_PT135H.grib2 2026-05-04 16:44 1.1M
20260504T12Z_MSC_GDPS_WindU_IsbL-0600_LatLon0.15_PT135H.grib2 2026-05-04 16:44 1.1M
20260504T12Z_MSC_GDPS_WindU_IsbL-0650_LatLon0.15_PT135H.grib2 2026-05-04 16:44 1.2M
20260504T12Z_MSC_GDPS_WindU_IsbL-0700_LatLon0.15_PT135H.grib2 2026-05-04 16:44 1.2M
20260504T12Z_MSC_GDPS_WindU_IsbL-0750_LatLon0.15_PT135H.grib2 2026-05-04 16:44 1.3M
20260504T12Z_MSC_GDPS_WindU_IsbL-0800_LatLon0.15_PT135H.grib2 2026-05-04 16:44 1.3M
20260504T12Z_MSC_GDPS_WindU_IsbL-0850_LatLon0.15_PT135H.grib2 2026-05-04 16:44 1.4M
20260504T12Z_MSC_GDPS_WindU_IsbL-0875_LatLon0.15_PT135H.grib2 2026-05-04 16:44 1.5M
20260504T12Z_MSC_GDPS_WindU_IsbL-0900_LatLon0.15_PT135H.grib2 2026-05-04 16:44 1.5M
20260504T12Z_MSC_GDPS_WindU_IsbL-0925_LatLon0.15_PT135H.grib2 2026-05-04 16:44 1.5M
20260504T12Z_MSC_GDPS_WindU_IsbL-0950_LatLon0.15_PT135H.grib2 2026-05-04 16:44 1.4M
20260504T12Z_MSC_GDPS_WindU_IsbL-0970_LatLon0.15_PT135H.grib2 2026-05-04 16:44 1.4M
20260504T12Z_MSC_GDPS_WindU_IsbL-0985_LatLon0.15_PT135H.grib2 2026-05-04 16:44 1.4M
20260504T12Z_MSC_GDPS_WindU_IsbL-1000_LatLon0.15_PT135H.grib2 2026-05-04 16:44 1.4M
20260504T12Z_MSC_GDPS_WindU_IsbL-1015_LatLon0.15_PT135H.grib2 2026-05-04 16:44 1.6M
20260504T12Z_MSC_GDPS_WindV_AGL-10m_LatLon0.15_PT135H.grib2 2026-05-04 16:44 1.3M
20260504T12Z_MSC_GDPS_WindV_AGL-120m_LatLon0.15_PT135H.grib2 2026-05-04 16:44 970K
20260504T12Z_MSC_GDPS_WindV_AGL-40m_LatLon0.15_PT135H.grib2 2026-05-04 16:44 963K
20260504T12Z_MSC_GDPS_WindV_AGL-80m_LatLon0.15_PT135H.grib2 2026-05-04 16:44 970K
20260504T12Z_MSC_GDPS_WindV_IsbL-0001_LatLon0.15_PT135H.grib2 2026-05-04 16:44 791K
20260504T12Z_MSC_GDPS_WindV_IsbL-0005_LatLon0.15_PT135H.grib2 2026-05-04 16:44 770K
20260504T12Z_MSC_GDPS_WindV_IsbL-0010_LatLon0.15_PT135H.grib2 2026-05-04 16:44 886K
20260504T12Z_MSC_GDPS_WindV_IsbL-0020_LatLon0.15_PT135H.grib2 2026-05-04 16:44 933K
20260504T12Z_MSC_GDPS_WindV_IsbL-0030_LatLon0.15_PT135H.grib2 2026-05-04 16:44 940K
20260504T12Z_MSC_GDPS_WindV_IsbL-0050_LatLon0.15_PT135H.grib2 2026-05-04 16:44 903K
20260504T12Z_MSC_GDPS_WindV_IsbL-0100_LatLon0.15_PT135H.grib2 2026-05-04 16:44 856K
20260504T12Z_MSC_GDPS_WindV_IsbL-0150_LatLon0.15_PT135H.grib2 2026-05-04 16:44 1.0M
20260504T12Z_MSC_GDPS_WindV_IsbL-0175_LatLon0.15_PT135H.grib2 2026-05-04 16:44 1.0M
20260504T12Z_MSC_GDPS_WindV_IsbL-0200_LatLon0.15_PT135H.grib2 2026-05-04 16:44 847K
20260504T12Z_MSC_GDPS_WindV_IsbL-0225_LatLon0.15_PT135H.grib2 2026-05-04 16:44 853K
20260504T12Z_MSC_GDPS_WindV_IsbL-0250_LatLon0.15_PT135H.grib2 2026-05-04 16:44 909K
20260504T12Z_MSC_GDPS_WindV_IsbL-0275_LatLon0.15_PT135H.grib2 2026-05-04 16:44 931K
20260504T12Z_MSC_GDPS_WindV_IsbL-0300_LatLon0.15_PT135H.grib2 2026-05-04 16:44 917K
20260504T12Z_MSC_GDPS_WindV_IsbL-0350_LatLon0.15_PT135H.grib2 2026-05-04 16:44 932K
20260504T12Z_MSC_GDPS_WindV_IsbL-0400_LatLon0.15_PT135H.grib2 2026-05-04 16:44 875K
20260504T12Z_MSC_GDPS_WindV_IsbL-0450_LatLon0.15_PT135H.grib2 2026-05-04 16:44 878K
20260504T12Z_MSC_GDPS_WindV_IsbL-0500_LatLon0.15_PT135H.grib2 2026-05-04 16:44 1.1M
20260504T12Z_MSC_GDPS_WindV_IsbL-0550_LatLon0.15_PT135H.grib2 2026-05-04 16:44 1.1M
20260504T12Z_MSC_GDPS_WindV_IsbL-0600_LatLon0.15_PT135H.grib2 2026-05-04 16:44 1.1M
20260504T12Z_MSC_GDPS_WindV_IsbL-0650_LatLon0.15_PT135H.grib2 2026-05-04 16:44 1.2M
20260504T12Z_MSC_GDPS_WindV_IsbL-0700_LatLon0.15_PT135H.grib2 2026-05-04 16:44 1.2M
20260504T12Z_MSC_GDPS_WindV_IsbL-0750_LatLon0.15_PT135H.grib2 2026-05-04 16:44 1.3M
20260504T12Z_MSC_GDPS_WindV_IsbL-0800_LatLon0.15_PT135H.grib2 2026-05-04 16:44 1.3M
20260504T12Z_MSC_GDPS_WindV_IsbL-0850_LatLon0.15_PT135H.grib2 2026-05-04 16:44 1.4M
20260504T12Z_MSC_GDPS_WindV_IsbL-0875_LatLon0.15_PT135H.grib2 2026-05-04 16:44 1.4M
20260504T12Z_MSC_GDPS_WindV_IsbL-0900_LatLon0.15_PT135H.grib2 2026-05-04 16:44 1.5M
20260504T12Z_MSC_GDPS_WindV_IsbL-0925_LatLon0.15_PT135H.grib2 2026-05-04 16:44 1.4M
20260504T12Z_MSC_GDPS_WindV_IsbL-0950_LatLon0.15_PT135H.grib2 2026-05-04 16:44 1.4M
20260504T12Z_MSC_GDPS_WindV_IsbL-0970_LatLon0.15_PT135H.grib2 2026-05-04 16:44 1.4M
20260504T12Z_MSC_GDPS_WindV_IsbL-0985_LatLon0.15_PT135H.grib2 2026-05-04 16:44 1.4M
20260504T12Z_MSC_GDPS_WindV_IsbL-1000_LatLon0.15_PT135H.grib2 2026-05-04 16:44 1.4M
20260504T12Z_MSC_GDPS_WindV_IsbL-1015_LatLon0.15_PT135H.grib2 2026-05-04 16:44 1.3M